Tracking 19831 objects as of 23-Aug-2019
HD Live streaming from Space Station
objects crossing your sky now

FLOCK 3P 40

Track FLOCK 3P 40 now!
10-day predictions
FLOCK 3P 40 is classified as:


NORAD ID: 42010
Int'l Code: 2017-008BQ
Perigee: 492.2 km
Apogee: 500.4 km
Inclination: 97.4 °
Period: 94.4 minutes
Semi major axis: 6867 km
RCS: Unknown
Launch date: February 15, 2017
Source: United States (US)
Launch site: SRIHARIKOTA (SRI)
aabbcc
Your satellite tracking list
Your tracking list is empty




NASA's NSSDC Master Catalog

Two Line Element Set (TLE):
1 42010U 17008BQ  19235.38230732  .00000811  00000-0  34838-4 0  9991
2 42010  97.4018 301.7573 0005951 300.3737  59.6912 15.25533585139217
Source of the keplerian elements: AFSPC